EWG3EV EDDL-LIML

Flight info

Callsign EWG3EV
Flight time 1h 9m
Altitude 37000
Route DODEN7Z DODEN Y852 NATOR DCT TRA DCT RIPUS DCT GERSA DCT SOSON DCT ODINA ODIN1Y
Aircraft A320/M-SDE3FGHIRWY/LB1

Departure

Time 2026-05-05 18:25
Airport Düsseldorf Airport (EDDL)

Arrival

Time 2026-05-05 19:35
Airport Milano Linate Airport (LIML)
Time Latitude Longitude Altitude Speed Heading
2026-05-05 17:43 51.27991 6.76183 125 ft 0 kts 119°
2026-05-05 17:47 51.27997 6.76166 123 ft 0 kts 118°
2026-05-05 18:13 51.27999 6.76161 128 ft 3 kts 119°
2026-05-05 18:13 51.28011 6.76123 124 ft 4 kts 104°
2026-05-05 18:13 51.28011 6.76087 125 ft 4 kts 66°
2026-05-05 18:14 51.27996 6.76054 124 ft 4 kts 22°
2026-05-05 18:14 51.27971 6.76047 125 ft 3 kts 358°
2026-05-05 18:14 51.27968 6.76047 125 ft 0 kts 358°
2026-05-05 18:17 51.27971 6.76047 125 ft 1 kts 358°
2026-05-05 18:17 51.27993 6.76046 124 ft 5 kts 359°
2026-05-05 18:17 51.28046 6.76049 125 ft 10 kts
2026-05-05 18:17 51.28101 6.76007 125 ft 8 kts 292°
2026-05-05 18:18 51.28085 6.75930 127 ft 7 kts 236°
2026-05-05 18:18 51.28059 6.75872 127 ft 6 kts 233°
2026-05-05 18:18 51.28036 6.75824 128 ft 5 kts 232°
2026-05-05 18:18 51.28017 6.75787 126 ft 4 kts 232°
2026-05-05 18:19 51.28003 6.75759 125 ft 3 kts 232°
2026-05-05 18:19 51.27981 6.75710 124 ft 8 kts 234°
2026-05-05 18:19 51.27938 6.75619 127 ft 11 kts 232°
2026-05-05 18:19 51.27900 6.75541 126 ft 11 kts 231°
2026-05-05 18:20 51.27856 6.75446 125 ft 10 kts 235°
2026-05-05 18:20 51.27837 6.75393 123 ft 4 kts 266°
2026-05-05 18:20 51.27839 6.75368 124 ft 0 kts 291°
2026-05-05 18:20 51.27839 6.75367 124 ft 0 kts 291°
2026-05-05 18:21 51.27840 6.75365 124 ft 0 kts 291°
2026-05-05 18:21 51.27858 6.75338 121 ft 7 kts 327°
2026-05-05 18:22 51.27889 6.75311 125 ft 1 kts 333°
2026-05-05 18:22 51.27889 6.75310 125 ft 0 kts 333°
2026-05-05 18:22 51.27890 6.75310 125 ft 1 kts 333°
2026-05-05 18:23 51.27933 6.75274 123 ft 13 kts 333°
2026-05-05 18:23 51.28015 6.75316 123 ft 13 kts 51°
2026-05-05 18:23 51.28025 6.75337 124 ft 0 kts 52°
2026-05-05 18:24 51.28040 6.75366 124 ft 13 kts 52°
2026-05-05 18:24 51.28222 6.75744 127 ft 78 kts 53°
2026-05-05 18:24 51.28676 6.76696 126 ft 136 kts 52°
2026-05-05 18:25 51.29333 6.78085 308 ft 165 kts 51°
2026-05-05 18:25 51.29789 6.79082 847 ft 161 kts 50°
2026-05-05 18:25 51.30695 6.81007 1766 ft 170 kts 51°
2026-05-05 18:25 51.31462 6.82617 2058 ft 192 kts 52°
2026-05-05 18:26 51.32341 6.84458 2384 ft 218 kts 53°
2026-05-05 18:26 51.33308 6.86490 2828 ft 241 kts 53°
2026-05-05 18:26 51.34308 6.88725 3523 ft 251 kts 59°
2026-05-05 18:26 51.34981 6.91363 4359 ft 257 kts 77°
2026-05-05 18:27 51.35133 6.94249 5176 ft 264 kts 94°
2026-05-05 18:27 51.34862 6.97179 5964 ft 269 kts 99°
2026-05-05 18:27 51.34554 7.00184 6805 ft 274 kts 99°
2026-05-05 18:27 51.34243 7.03220 7686 ft 279 kts 100°
2026-05-05 18:28 51.33608 7.09449 9557 ft 289 kts 100°
2026-05-05 18:28 51.33276 7.12711 10318 ft 301 kts 101°
2026-05-05 18:28 51.32673 7.16040 10658 ft 323 kts 114°
2026-05-05 18:29 51.31569 7.19229 11269 ft 333 kts 127°
2026-05-05 18:29 51.30041 7.22030 12039 ft 337 kts 136°
2026-05-05 18:29 51.28343 7.24701 12812 ft 339 kts 136°
2026-05-05 18:29 51.26661 7.27358 13554 ft 342 kts 136°
2026-05-05 18:30 51.24959 7.30050 14210 ft 345 kts 136°
2026-05-05 18:30 51.23249 7.32758 14847 ft 348 kts 136°
2026-05-05 18:30 51.21507 7.35510 15484 ft 351 kts 136°
2026-05-05 18:30 51.19736 7.38294 16116 ft 354 kts 136°
2026-05-05 18:31 51.17975 7.41056 16757 ft 357 kts 136°
2026-05-05 18:31 51.16194 7.43852 17412 ft 360 kts 136°
2026-05-05 18:31 51.14402 7.46651 18062 ft 363 kts 137°
2026-05-05 18:31 51.12579 7.49460 18617 ft 366 kts 137°
2026-05-05 18:32 51.10735 7.52275 19174 ft 368 kts 137°
2026-05-05 18:32 51.09488 7.54169 19540 ft 369 kts 137°
2026-05-05 18:32 51.07590 7.57050 20110 ft 371 kts 137°
2026-05-05 18:32 51.05724 7.59887 20640 ft 374 kts 137°
2026-05-05 18:33 51.03843 7.62752 21158 ft 376 kts 137°
2026-05-05 18:33 51.01979 7.65587 21649 ft 378 kts 137°
2026-05-05 18:33 51.00062 7.68497 22178 ft 380 kts 137°
2026-05-05 18:33 50.98145 7.71403 22671 ft 383 kts 137°
2026-05-05 18:34 50.96095 7.74180 23018 ft 383 kts 146°
2026-05-05 18:34 50.93846 7.76448 23206 ft 383 kts 149°
2026-05-05 18:34 50.91581 7.78672 23393 ft 384 kts 149°
2026-05-05 18:34 50.89305 7.80903 23553 ft 384 kts 149°
2026-05-05 18:35 50.86969 7.83192 23726 ft 385 kts 148°
2026-05-05 18:35 50.84686 7.85437 23879 ft 386 kts 148°
2026-05-05 18:35 50.82412 7.87677 24047 ft 387 kts 148°
2026-05-05 18:35 50.80124 7.89922 24205 ft 388 kts 148°
2026-05-05 18:36 50.77824 7.92172 24440 ft 390 kts 148°
2026-05-05 18:36 50.75349 7.94101 24856 ft 392 kts 162°
2026-05-05 18:36 50.72668 7.94900 25250 ft 394 kts 172°
2026-05-05 18:36 50.69901 7.95397 25652 ft 396 kts 173°
2026-05-05 18:37 50.67710 7.95770 25952 ft 398 kts 173°
2026-05-05 18:37 50.64956 7.96223 26334 ft 400 kts 173°
2026-05-05 18:37 50.62179 7.96676 26712 ft 402 kts 173°
2026-05-05 18:37 50.59398 7.97136 27091 ft 404 kts 173°
2026-05-05 18:38 50.56569 7.97616 27461 ft 406 kts 172°
2026-05-05 18:38 50.53753 7.98098 27822 ft 408 kts 172°
2026-05-05 18:38 50.50925 7.98583 28184 ft 410 kts 172°
2026-05-05 18:38 50.48044 7.99070 28554 ft 412 kts 172°
2026-05-05 18:39 50.45184 7.99546 28908 ft 414 kts 172°
2026-05-05 18:39 50.42308 8.00026 29262 ft 416 kts 172°
2026-05-05 18:39 50.39417 8.00510 29604 ft 418 kts 172°
2026-05-05 18:39 50.36479 8.01004 29930 ft 420 kts 172°
2026-05-05 18:40 50.33576 8.01492 30216 ft 422 kts 172°
2026-05-05 18:40 50.30652 8.01988 30502 ft 423 kts 172°
2026-05-05 18:40 50.27673 8.02493 30796 ft 424 kts 172°
2026-05-05 18:40 50.24728 8.02992 31062 ft 426 kts 172°
2026-05-05 18:41 50.21797 8.03483 31416 ft 425 kts 172°
2026-05-05 18:41 50.18913 8.03968 31821 ft 423 kts 172°
2026-05-05 18:41 50.15961 8.04460 32233 ft 421 kts 172°
2026-05-05 18:41 50.13046 8.04944 32640 ft 419 kts 172°
2026-05-05 18:42 50.10109 8.05435 33038 ft 418 kts 172°
2026-05-05 18:42 50.07225 8.05920 33431 ft 416 kts 172°
2026-05-05 18:42 50.04359 8.06395 33839 ft 414 kts 172°
2026-05-05 18:42 50.01456 8.06874 34166 ft 413 kts 172°
2026-05-05 18:43 49.98602 8.07348 34414 ft 414 kts 172°
2026-05-05 18:43 49.95737 8.07824 34636 ft 414 kts 173°
2026-05-05 18:43 49.92865 8.08301 34807 ft 415 kts 173°
2026-05-05 18:43 49.89944 8.08784 34841 ft 416 kts 173°
2026-05-05 18:44 49.84206 8.09720 34842 ft 416 kts 173°
2026-05-05 18:44 49.78436 8.10670 34839 ft 417 kts 173°
2026-05-05 18:45 49.75551 8.11146 35062 ft 417 kts 173°
2026-05-05 18:45 49.72662 8.11618 35315 ft 417 kts 173°
2026-05-05 18:45 49.69741 8.12093 35548 ft 417 kts 173°
2026-05-05 18:45 49.66859 8.12564 35771 ft 417 kts 174°
2026-05-05 18:46 49.64920 8.12883 35915 ft 417 kts 174°
2026-05-05 18:46 49.62032 8.13358 36148 ft 417 kts 174°
2026-05-05 18:46 49.59099 8.13840 36384 ft 417 kts 174°
2026-05-05 18:46 49.56286 8.14300 36614 ft 416 kts 174°
2026-05-05 18:47 49.53294 8.14787 36790 ft 417 kts 174°
2026-05-05 18:47 49.50405 8.15258 36834 ft 421 kts 174°
2026-05-05 18:47 49.44538 8.16212 36833 ft 424 kts 174°
2026-05-05 18:48 49.38667 8.17154 36833 ft 425 kts 175°
2026-05-05 18:48 49.32792 8.18114 36831 ft 425 kts 174°
2026-05-05 18:49 49.26902 8.19074 36829 ft 424 kts 175°
2026-05-05 18:49 49.21046 8.20008 36821 ft 424 kts 175°
2026-05-05 18:50 49.15138 8.20950 36819 ft 424 kts 175°
2026-05-05 18:50 49.09230 8.21898 36821 ft 425 kts 175°
2026-05-05 18:51 49.03343 8.22846 36828 ft 425 kts 175°
2026-05-05 18:51 48.97469 8.23780 36834 ft 425 kts 175°
2026-05-05 18:52 48.91570 8.24706 36834 ft 425 kts 175°
2026-05-05 18:52 48.85649 8.25646 36840 ft 426 kts 175°
2026-05-05 18:53 48.79748 8.26586 36843 ft 426 kts 175°
2026-05-05 18:53 48.73811 8.27519 36846 ft 426 kts 175°
2026-05-05 18:54 48.67844 8.28453 36848 ft 426 kts 175°
2026-05-05 18:54 48.61903 8.29378 36848 ft 426 kts 175°
2026-05-05 18:55 48.56008 8.30301 36853 ft 426 kts 176°
2026-05-05 18:55 48.50076 8.31230 36857 ft 426 kts 175°
2026-05-05 18:56 48.44148 8.32160 36863 ft 426 kts 176°
2026-05-05 18:56 48.38170 8.33092 36862 ft 426 kts 176°
2026-05-05 18:57 48.32294 8.34002 36866 ft 426 kts 176°
2026-05-05 18:57 48.26344 8.34912 36871 ft 425 kts 176°
2026-05-05 18:58 48.20478 8.35822 36870 ft 426 kts 176°
2026-05-05 18:58 48.14524 8.36746 36874 ft 425 kts 176°
2026-05-05 18:59 48.08636 8.37649 36873 ft 425 kts 176°
2026-05-05 18:59 48.02713 8.38556 36882 ft 425 kts 176°
2026-05-05 19:00 47.97782 8.39305 36887 ft 425 kts 176°
2026-05-05 19:00 47.91842 8.40208 36906 ft 425 kts 176°
2026-05-05 19:01 47.85960 8.41110 36889 ft 426 kts 176°
2026-05-05 19:01 47.80028 8.42018 36899 ft 426 kts 176°
2026-05-05 19:02 47.74137 8.42912 36901 ft 426 kts 176°
2026-05-05 19:02 47.68197 8.43810 36903 ft 426 kts 177°
2026-05-05 19:03 47.62311 8.44694 36908 ft 425 kts 177°
2026-05-05 19:03 47.56388 8.45564 36907 ft 425 kts 177°
2026-05-05 19:04 47.50494 8.46430 36895 ft 425 kts 177°
2026-05-05 19:04 47.44594 8.47288 36893 ft 426 kts 177°
2026-05-05 19:05 47.38651 8.48151 36892 ft 426 kts 178°
2026-05-05 19:05 47.32794 8.49010 36895 ft 426 kts 178°
2026-05-05 19:06 47.26852 8.49881 36898 ft 426 kts 178°
2026-05-05 19:06 47.20959 8.50739 36916 ft 426 kts 178°
2026-05-05 19:07 47.15057 8.51597 36915 ft 426 kts 178°
2026-05-05 19:07 47.09125 8.52454 36940 ft 426 kts 178°
2026-05-05 19:08 47.03230 8.53310 36936 ft 426 kts 178°
2026-05-05 19:08 46.97303 8.54172 36937 ft 425 kts 178°
2026-05-05 19:09 46.91415 8.55018 36938 ft 425 kts 178°
2026-05-05 19:09 46.85494 8.55879 36956 ft 424 kts 178°
2026-05-05 19:10 46.79619 8.56719 36958 ft 425 kts 178°
2026-05-05 19:10 46.76666 8.57140 36785 ft 426 kts 179°
2026-05-05 19:10 46.73731 8.57558 36525 ft 424 kts 179°
2026-05-05 19:11 46.70756 8.57982 36279 ft 423 kts 179°
2026-05-05 19:11 46.67857 8.58397 36028 ft 421 kts 179°
2026-05-05 19:11 46.64939 8.58817 35781 ft 420 kts 179°
2026-05-05 19:11 46.62019 8.59234 35535 ft 420 kts 179°
2026-05-05 19:12 46.59082 8.59651 35172 ft 420 kts 180°
2026-05-05 19:12 46.56163 8.60068 34580 ft 419 kts 180°
2026-05-05 19:12 46.53269 8.60480 33986 ft 417 kts 181°
2026-05-05 19:12 46.50346 8.60896 33297 ft 416 kts 181°
2026-05-05 19:13 46.47473 8.61303 32622 ft 415 kts 181°
2026-05-05 19:13 46.44554 8.61714 31961 ft 415 kts 181°
2026-05-05 19:13 46.41686 8.62115 31331 ft 417 kts 180°
2026-05-05 19:13 46.38781 8.62519 30703 ft 418 kts 180°
2026-05-05 19:14 46.35895 8.62922 30132 ft 417 kts 180°
2026-05-05 19:14 46.32936 8.63338 28960 ft 423 kts 180°
2026-05-05 19:14 46.30035 8.63748 28371 ft 416 kts 180°
2026-05-05 19:14 46.27163 8.64159 27677 ft 411 kts 180°
2026-05-05 19:15 46.24289 8.64569 26991 ft 407 kts 179°
2026-05-05 19:15 46.22392 8.64836 26556 ft 404 kts 179°
2026-05-05 19:15 46.19578 8.65228 25896 ft 400 kts 179°
2026-05-05 19:15 46.16812 8.65609 25252 ft 397 kts 179°
2026-05-05 19:16 46.14075 8.65986 24618 ft 395 kts 179°
2026-05-05 19:16 46.11410 8.66570 23995 ft 396 kts 171°
2026-05-05 19:16 46.08798 8.67851 23331 ft 400 kts 160°
2026-05-05 19:16 46.06302 8.69747 22678 ft 399 kts 156°
2026-05-05 19:17 46.03922 8.71626 22094 ft 394 kts 156°
2026-05-05 19:17 46.01489 8.73533 21547 ft 389 kts 156°
2026-05-05 19:17 45.99121 8.75381 21002 ft 385 kts 156°
2026-05-05 19:17 45.96781 8.77206 20513 ft 381 kts 156°
2026-05-05 19:18 45.94433 8.79037 19999 ft 378 kts 156°
2026-05-05 19:18 45.92095 8.80856 19505 ft 376 kts 156°
2026-05-05 19:18 45.89808 8.82632 19176 ft 369 kts 156°
2026-05-05 19:18 45.87552 8.84390 19066 ft 357 kts 156°
2026-05-05 19:19 45.85410 8.86060 18926 ft 346 kts 156°
2026-05-05 19:19 45.83328 8.87681 18811 ft 334 kts 156°
2026-05-05 19:19 45.81312 8.89248 18609 ft 326 kts 156°
2026-05-05 19:19 45.79331 8.90785 18441 ft 321 kts 156°
2026-05-05 19:20 45.77337 8.92324 17924 ft 325 kts 156°
2026-05-05 19:20 45.75360 8.93849 17626 ft 321 kts 156°
2026-05-05 19:20 45.73395 8.95364 17127 ft 318 kts 156°
2026-05-05 19:20 45.71470 8.96851 16596 ft 317 kts 156°
2026-05-05 19:21 45.69546 8.98341 15947 ft 314 kts 156°
2026-05-05 19:21 45.67626 8.99828 15384 ft 311 kts 156°
2026-05-05 19:21 45.65725 9.01292 14890 ft 310 kts 156°
2026-05-05 19:21 45.63800 9.02768 14404 ft 309 kts 156°
2026-05-05 19:22 45.61920 9.04207 13925 ft 308 kts 155°
2026-05-05 19:22 45.60017 9.05667 13408 ft 307 kts 155°
2026-05-05 19:22 45.58144 9.07105 12893 ft 302 kts 155°
2026-05-05 19:22 45.56291 9.08528 12441 ft 298 kts 155°
2026-05-05 19:23 45.54469 9.09928 12084 ft 295 kts 155°
2026-05-05 19:23 45.52685 9.11296 11963 ft 286 kts 155°
2026-05-05 19:23 45.50902 9.12448 11815 ft 274 kts 166°
2026-05-05 19:23 45.49072 9.12918 11595 ft 266 kts 179°
2026-05-05 19:24 45.47225 9.13119 11340 ft 263 kts 178°
2026-05-05 19:24 45.45375 9.13324 11088 ft 262 kts 178°
2026-05-05 19:24 45.43562 9.13525 10838 ft 261 kts 178°
2026-05-05 19:24 45.41764 9.13727 10594 ft 260 kts 178°
2026-05-05 19:25 45.39939 9.13933 10347 ft 259 kts 178°
2026-05-05 19:25 45.38144 9.14136 10102 ft 258 kts 178°
2026-05-05 19:25 45.36363 9.14335 9888 ft 256 kts 178°
2026-05-05 19:25 45.34575 9.14532 9762 ft 257 kts 178°
2026-05-05 19:26 45.32793 9.14725 9631 ft 256 kts 178°
2026-05-05 19:26 45.31011 9.14921 9259 ft 258 kts 177°
2026-05-05 19:26 45.29237 9.15119 8784 ft 253 kts 177°
2026-05-05 19:26 45.27491 9.15319 8267 ft 250 kts 177°
2026-05-05 19:27 45.25773 9.15514 7724 ft 247 kts 177°
2026-05-05 19:27 45.24035 9.15709 7094 ft 248 kts 177°
2026-05-05 19:27 45.22310 9.15903 6484 ft 248 kts 177°
2026-05-05 19:27 45.20586 9.16094 5843 ft 248 kts 177°
2026-05-05 19:28 45.18918 9.16601 5208 ft 249 kts 155°
2026-05-05 19:28 45.17609 9.18198 4577 ft 253 kts 124°
2026-05-05 19:28 45.17073 9.20553 4195 ft 247 kts 92°
2026-05-05 19:28 45.17190 9.22974 4013 ft 246 kts 84°
2026-05-05 19:29 45.17719 9.25261 3841 ft 248 kts 57°
2026-05-05 19:29 45.18949 9.26951 3656 ft 249 kts 37°
2026-05-05 19:29 45.20379 9.28344 3482 ft 248 kts 34°
2026-05-05 19:29 45.21356 9.29221 3365 ft 247 kts 28°
2026-05-05 19:30 45.22972 9.29925 3192 ft 242 kts
2026-05-05 19:30 45.24630 9.29843 3059 ft 232 kts 356°
2026-05-05 19:30 45.26214 9.29670 3003 ft 228 kts 356°
2026-05-05 19:30 45.27796 9.29501 3003 ft 223 kts 356°
2026-05-05 19:31 45.29296 9.29340 3006 ft 211 kts 356°
2026-05-05 19:31 45.30745 9.29184 2895 ft 207 kts 356°
2026-05-05 19:31 45.32146 9.29033 2617 ft 195 kts 357°
2026-05-05 19:31 45.33457 9.28894 2363 ft 182 kts 357°
2026-05-05 19:32 45.34679 9.28762 2116 ft 171 kts 357°
2026-05-05 19:32 45.35845 9.28637 1884 ft 163 kts 358°
2026-05-05 19:32 45.36936 9.28520 1684 ft 153 kts 359°
2026-05-05 19:32 45.37992 9.28407 1473 ft 148 kts 358°
2026-05-05 19:33 45.39012 9.28298 1275 ft 146 kts 358°
2026-05-05 19:33 45.40006 9.28191 1070 ft 145 kts 358°
2026-05-05 19:33 45.40914 9.28093 887 ft 144 kts 358°
2026-05-05 19:33 45.41776 9.27999 731 ft 143 kts 358°
2026-05-05 19:34 45.42780 9.27879 536 ft 142 kts 358°
2026-05-05 19:34 45.43764 9.27784 371 ft 140 kts 357°
2026-05-05 19:34 45.44601 9.27697 365 ft 96 kts 355°
2026-05-05 19:35 45.45260 9.27642 358 ft 16 kts
2026-05-05 19:35 45.45353 9.27688 362 ft 12 kts 25°
2026-05-05 19:35 45.45410 9.27734 363 ft 6 kts 31°
2026-05-05 19:35 45.45440 9.27766 360 ft 7 kts 44°
2026-05-05 19:36 45.45494 9.27808 360 ft 11 kts
2026-05-05 19:36 45.45567 9.27816 360 ft 8 kts
2026-05-05 19:36 45.45609 9.27816 361 ft 4 kts
2026-05-05 19:36 45.45650 9.27817 362 ft 8 kts
2026-05-05 19:37 45.45714 9.27818 360 ft 11 kts
2026-05-05 19:37 45.45787 9.27818 363 ft 10 kts
2026-05-05 19:37 45.45842 9.27818 360 ft 0 kts
2026-05-05 19:37 45.45856 9.27819 360 ft 6 kts
2026-05-05 19:38 45.45899 9.27844 363 ft 5 kts 57°
2026-05-05 19:38 45.45906 9.27882 360 ft 5 kts 76°
2026-05-05 19:38 45.45935 9.27903 360 ft 5 kts
2026-05-05 19:38 45.45960 9.27903 360 ft 2 kts 359°
2026-05-05 19:39 45.45971 9.27903 360 ft 0 kts 360°
2026-05-05 19:39 45.45973 9.27903 360 ft 0 kts 359°